Погода в Богатом

Россия / Республика Крым     45°01′38″N   34°46′03″E
темп.,
°C
ветер,
м/с
пор.,
м/с
влажн.,
%
обл.,
%
осадки,
мм/ч
давл.,
гПа
погр.,
м
13 мая, чт
чт1300:00+8ю2280100 0.0 101318
03:00+8ю22755 0.0 101215
06:00+8ю11757 0.0 101211
09:00+15в2255100 0.0 1011427
12:00+19юв344462 0.0 1011898
15:00+20ююв46345 0.0 1010963
18:00+18юв34415 0.0 1010441
21:00+12ююв33480 0.0 101030
14 мая, пт
пт1400:00+14ю343876 0.0 100955
03:00+14ю3237100 0.1 100929
06:00+13юз0047100 0.1 101010
09:00+20ю123440 0.1 1010357
12:00+24ссз33345 0.0 10101258
15:00+25з343631 0.0 10101757
18:00+21зсз26504 0.0 1011732
21:00+14ю117988 0.0 101311
15 мая, сб
сб1500:00+14юз11740 0.0 101310
03:00+13з12710 0.0 101414
06:00+13зюз116890 0.0 101411
09:00+19в12515 0.0 1015647
12:00+22юв244075 0.0 10141613
15:00+23вюв2341100 0.0 10131718
18:00+20юв3350100 0.0 1013419
21:00+15зюз116767 0.0 101311
16 мая, вс
вс1600:00+13юз0174100 0.0 101311
03:00+13всв1164100 0.0 101214
06:00+13св1263100 0.0 101120
09:00+19св375329 0.0 1010508
12:00+22св4654100 0.0 1009843
15:00+22ссв456496 0.3 1008819
18:00+21св3668100 0.1 1006604
21:00+16зюз1293100 2.8 100520
17 мая, пн
пн1700:00+16з2291100 5.5 100524
03:00+15сз1299100 7.3 100361
06:00+16ююв119192 0.0 100418
09:00+20зсз1270100 0.0 1005557
12:00+22з666557 0.2 10061031
15:00+22з785335 1.0 10071145
18:00+19з6106212 0.0 1008749
21:00+14з248184 0.0 101184